Location: Sternwarte ZA, Rosenfeld-Brittheim
(48.2889°N, 8.6789°E)
Time: 05:20:44
(UTC+02:00)

ISS - Pass Details

Date: 19 September 2020
Orbit: 419 x 420 km, 51.6° (Epoch: 21 September)

Event Time Altitude Azimuth Distance (km) Brightness Sun altitude
Rises 20:49:39 0° 230° (SW) 2,357 0.5 -14.1°
Reaches altitude 10° 20:51:47 10° 225° (SW) 1,497 -0.6 -14.4°
Maximum altitude 20:55:02 48° 150° (SSE) 554 -3.5 -14.9°
Enters shadow 20:56:07 34° 97° (E) 721 -3.1 -15.1°
